Weather in Velikie Ozera

Ukraine / Rovno District     51°33′42″N   26°54′31″E
temp.,
°C
wind,
m/s
gust,
m/s
humid.,
%
clouds,
%
prec.,
mm/h
press.,
hPa
HPBL,
m
22 january, sat
sat2223:00−2wnw71387100 0.8 1006959
02:00−4wnw61291100 0.9 1007810
05:00−4w61292100 0.2 1007750
08:00−4wnw51195100 0.8 1007671
11:00−3nnw598695 0.7 1010842
14:00−3nnw688299 0.8 1012931
17:00−4nw51190100 0.1 1015725
20:00−4nw51192100 0.5 1017812
23 january, sun
sun2323:00−4nw51195100 0.4 1017666
02:00−4nnw51094100 1.4 1018764
05:00−6n5108996 0.6 1020827
08:00−10n389381 0.6 1024250
11:00−8nne4787100 0.0 1027482
14:00−6nne4681100 0.1 1028653
17:00−9n369399 0.0 1031128
20:00−11nne229974 0.0 103332
24 january, mon
mon2423:00−12n239981 0.0 103652
02:00−13nne229873 0.0 103740
05:00−14n229868 0.0 103729
08:00−14nnw119864 0.0 103913
11:00−9n238820 0.0 1039197
14:00−6nnw24815 0.0 1036340
17:00−10nnw23955 0.0 103733
20:00−13nw229759 0.0 103622
25 january, tue
tue2523:00−14nw119863 0.0 103610
02:00−14w229872 0.0 103416
05:00−14wsw229973 0.0 103225
08:00−14wsw249891 0.0 103160
11:00−7wsw3583100 0.0 1029190
14:00−4wsw3693100 0.3 1026294
17:00−4sw3697100 0.4 1024222
20:00−4wsw2698100 0.8 1022171
26 january, wed
wed2623:00−3wnw2798100 0.4 1021209
02:00−2nnw3998100 0.9 1021299
05:00−1n6129598 0.6 1022655
08:00−3n41095100 0.8 1023465
11:00−5n599077 0.1 1025401
14:00−4nnw578589 0.1 1025558
17:00−8nw359553 0.0 102676
20:00−11wnw1199100 0.0 102610